Terminal Aerodrome Forecast
Issued by NWS

Home | Current Version | Previous Version | Text Only | Print | Product List | Glossary On
Versions: 1 2 3 4 5 6 7 8 9 10 11 12 13 14 15 16 17
000
FTPA31 PHFO 261137
TAFHKO
TAF
PHKO 261137Z 2612/2712 VRB05KT P6SM FEW020 BKN045
     FM262000 20010KT P6SM FEW030 SCT050
     FM270400 15008KT P6SM FEW030 BKN050
     FM270900 10005KT P6SM FEW030 BKN050=

USA.gov is the U.S. government's official web portal to all federal, state and local government web resources and services.